User: anonymous   Login
Location: Oshawa
(43.9000°N, 78.8670°W)
Time: 20:17:22
(UTC-04:00)
Language:

Iridium 46 - Orbit

View from above orbital plane
View from above orbital plane
View from above satellite
View from above satellite

Ground track
Ground track

The orbit data is extracted from the following two-line orbital elements,

1 24905U 97043C   15089.49004887  .00000627  00000-0  21677-3 0  9997
2 24905 086.3967 234.3387 0002173 098.2193 261.9249 14.34220578921771
Epoch (UTC): 30 March 2015 11:45:40
Eccentricity: 0.0002173
inclination: 86.3967°
perigee height: 776 km
apogee height: 779 km
right ascension of ascending node: 234.3387°
argument of perigee: 98.2193°
revolutions per day: 14.34220578
mean anomaly at epoch: 261.9249°
orbit number at epoch: 92177

The dashed part of the orbit path shows where the satellite is in the earth's shadow,  

DLR